{"data":{"norad_id":63357,"epoch":"2026-09-19T21:46:54.647616Z","epoch_age_seconds":65684,"freshness":"FRESH","line1":"1 63357U 25061G   26262.90757694  .00002522  00000+0  13756-3 0  9998","line2":"2 63357  97.5726 238.3363 0016654 283.1544  76.7829 15.15197338 81976","mean_motion":15.15197338,"eccentricity":0.0016654,"inclination_deg":97.5726,"raan_deg":238.3363,"arg_perigee_deg":283.1544,"mean_anomaly_deg":76.7829,"bstar":0.00013756,"rev_number":8197,"period_min":95.037125784602,"perigee_km":508.89073435758,"apogee_km":531.86831319498,"semimajor_km":6898.5165237763,"source":"CELESTRAK","updated_at":"2026-09-20T09:00:34.876759Z"}}